GW1261 Weather Reports


time (UTC)temp
C
wind
direction
speed
KPH
gust
KPH
rain 1hr
cm
rain 24hr
cm
rain mn
cm
humidity
%
barometer
mb
20260509054750 26 223 0.0 0.0 0.00 0.00 0.00 97 978.4
20260509054246 26 223 0.0 0.0 0.00 0.00 0.00 97 978.3
20260509053745 26 223 0.0 0.0 0.00 0.00 0.00 96 978.3
20260509053242 26 220 0.0 0.0 0.00 0.00 0.00 96 978.4
20260509052740 26 217 0.0 0.0 0.00 0.00 0.00 94 978.5
20260509052237 26 217 0.0 0.0 0.00 0.00 0.00 94 978.7
20260509051735 26 217 0.0 0.0 0.00 0.00 0.00 94 978.8
20260509051233 26 216 0.0 0.0 0.00 0.00 0.00 94 978.8
20260509050729 26 215 0.0 0.0 0.00 0.00 0.00 93 978.9
20260509050226 26 218 0.0 0.0 0.00 0.00 0.00 92 978.8
20260509045723 26 209 0.0 0.0 0.00 0.00 0.00 90 978.8
20260509045220 26 199 0.0 0.0 0.00 0.00 0.00 89 978.8
20260509044717 26 195 0.0 0.0 0.00 0.00 0.00 88 978.8
20260509044215 27 203 0.0 0.0 0.00 0.00 0.00 87 978.9
20260509043711 27 209 0.0 0.0 0.00 0.00 0.00 86 978.8
20260509043207 27 209 0.0 0.0 0.00 0.00 0.00 86 978.8
20260509042703 27 205 0.0 0.0 0.00 0.00 0.00 84 978.7
20260509042159 28 209 0.0 0.0 0.00 0.00 0.00 84 979.0
20260509041656 28 212 0.0 0.0 0.00 0.00 0.00 82 979.0
20260509041154 28 209 0.0 0.0 0.00 0.00 0.00 84 979.1
20260509040652 28 206 0.0 0.0 0.00 0.00 0.00 81 979.2
20260509040148 30 203 0.0 0.0 0.00 0.00 0.00 78 979.2
20260509035645 30 217 0.0 0.0 0.00 0.00 0.00 78 979.2
20260509035142 29 223 0.0 0.0 0.00 0.00 0.00 79 979.2
20260509034639 29 218 0.0 0.0 0.00 0.00 0.00 79 979.5
20260509034136 30 16 1.6 1.6 0.00 0.00 0.00 76 979.4
20260509033634 30 136 0.0 0.0 0.00 0.00 0.00 77 979.5
20260509033130 30 135 0.0 0.0 0.00 0.00 0.00 76 979.5
20260509032628 30 248 0.0 0.0 0.00 0.00 0.00 77 979.5
20260509032124 30 257 1.6 3.2 0.00 0.00 0.00 76 979.7
20260509031622 30 247 0.0 0.0 0.00 0.00 0.00 78 979.7
20260509031120 30 261 0.0 0.0 0.00 0.00 0.00 77 979.8
20260509030618 30 247 0.0 1.6 0.00 0.00 0.00 77 979.9
20260509030114 30 246 0.0 1.6 0.00 0.00 0.00 79 979.8
20260509025610 30 277 0.0 1.6 0.00 0.00 0.00 79 979.9
20260509025106 29 244 0.0 1.6 0.00 0.00 0.00 80 979.9
20260509024602 28 253 0.0 0.0 0.00 0.00 0.00 82 980.0
20260509024058 28 259 0.0 0.0 0.00 0.00 0.00 84 980.3
20260509023556 27 234 0.0 0.0 0.00 0.00 0.00 85 980.1
20260509023053 27 213 0.0 0.0 0.00 0.00 0.00 86 980.3
20260509022549 27 64 1.6 1.6 0.00 0.00 0.00 85 980.3
20260509022047 27 227 0.0 0.0 0.00 0.00 0.00 86 980.4
20260509021544 27 73 0.0 1.6 0.00 0.00 0.00 85 980.5
20260509021041 27 205 0.0 0.0 0.00 0.00 0.00 87 980.4
20260509020539 27 230 0.0 0.0 0.00 0.00 0.00 88 980.5
20260509020036 26 231 0.0 0.0 0.00 0.00 0.00 90 980.6
20260509015535 26 234 0.0 0.0 0.00 0.00 0.00 89 980.5
20260509015032 26 225 0.0 0.0 0.00 0.00 0.00 90 980.4
20260509014528 26 233 0.0 0.0 0.00 0.00 0.00 90 980.2
20260509014024 26 233 0.0 0.0 0.00 0.00 0.00 92 980.2
20260509013522 26 230 0.0 0.0 0.00 0.00 0.00 93 980.2
20260509013017 26 230 0.0 0.0 0.00 0.00 0.00 92 980.0
20260509012514 26 230 0.0 0.0 0.00 0.00 0.00 92 980.1
20260509012011 25 230 0.0 0.0 0.00 0.00 0.00 94 980.1
20260509011509 25 230 0.0 0.0 0.00 0.00 0.00 94 979.9
20260509011006 25 233 0.0 0.0 0.00 0.00 0.00 94 980.0
20260509010504 25 226 0.0 0.0 0.00 0.00 0.00 95 979.9
20260509010000 25 226 0.0 0.0 0.00 0.00 0.00 96 979.8
20260509005458 24 226 0.0 0.0 0.00 0.00 0.00 97 979.6
20260509004957 24 226 0.0 0.0 0.00 0.00 0.00 98 979.5
20260509004455 24 218 0.0 0.0 0.00 0.00 0.00 99 979.8
20260509003952 24 218 0.0 0.0 0.00 0.00 0.00 99 979.6
20260509003451 24 218 0.0 0.0 0.00 0.00 0.00 99 979.7
20260509002947 23 218 0.0 0.0 0.00 0.00 0.00 99 979.5
20260509002445 23 218 0.0 0.0 0.00 0.00 0.00 99 979.6
20260509001942 23 218 0.0 0.0 0.00 0.00 0.00 99 979.7
20260509001438 23 218 0.0 0.0 0.00 0.00 0.00 99 979.4
20260509000935 23 218 0.0 0.0 0.00 0.00 0.00 99 979.2
20260509000433 23 218 0.0 0.0 0.00 0.00 0.00 99 979.4
20260508235929 23 218 0.0 0.0 0.00 0.00 0.00 99 979.2
20260508235427 23 218 0.0 0.0 0.00 0.00 0.00 99 979.2
20260508234923 23 218 0.0 0.0 0.00 0.00 0.00 99 979.2
20260508234420 23 218 0.0 0.0 0.00 0.00 0.00 99 979.0
20260508233918 23 218 0.0 0.0 0.00 0.00 0.00 99 979.1
20260508233417 23 218 0.0 0.0 0.00 0.00 0.00 98 979.0
20260508232914 23 205 0.0 0.0 0.00 0.00 0.00 98 978.8
20260508232410 23 210 0.0 0.0 0.00 0.00 0.00 98 978.8
20260508231908 23 210 0.0 0.0 0.00 0.00 0.00 98 979.0
20260508231405 23 210 0.0 0.0 0.00 0.00 0.00 98 978.7
20260508230901 23 210 0.0 0.0 0.00 0.00 0.00 97 978.9
20260508230358 23 210 0.0 0.0 0.00 0.00 0.00 97 978.4
20260508225855 23 210 0.0 0.0 0.00 0.00 0.00 97 978.7
20260508225352 23 210 0.0 0.0 0.00 0.00 0.00 97 978.5
20260508224850 23 210 0.0 0.0 0.00 0.00 0.00 97 978.4
20260508224347 23 210 0.0 0.0 0.00 0.00 0.00 98 978.3
20260508223845 23 210 0.0 0.0 0.00 0.00 0.00 97 978.4
20260508223342 23 210 0.0 0.0 0.00 0.00 0.00 97 978.2
20260508222839 23 210 0.0 0.0 0.00 0.00 0.00 98 977.9
20260508222336 23 210 0.0 0.0 0.00 0.00 0.00 98 978.0
20260508221833 23 210 0.0 0.0 0.00 0.00 0.00 98 978.0
20260508221328 23 210 0.0 0.0 0.00 0.00 0.00 98 978.0
20260508220825 23 210 0.0 0.0 0.00 0.00 0.00 97 977.9
20260508220321 23 207 0.0 0.0 0.00 0.00 0.00 97 977.7
20260508215818 23 207 0.0 0.0 0.00 0.00 0.00 96 977.8
20260508215315 23 208 0.0 0.0 0.00 0.00 0.00 96 977.7
20260508214812 23 197 0.0 0.0 0.00 0.00 0.00 96 977.7
20260508214309 24 197 0.0 0.0 0.00 0.00 0.00 96 977.7
20260508213805 24 197 0.0 0.0 0.00 0.00 0.00 96 977.6
20260508213302 24 197 0.0 0.0 0.00 0.00 0.00 96 977.7
20260508212759 24 197 0.0 0.0 0.00 0.00 0.00 96 977.6
20260508212255 24 197 0.0 0.0 0.00 0.00 0.00 96 977.6
20260508211750 24 197 0.0 0.0 0.00 0.00 0.00 95 977.3
20260508211246 24 197 0.0 0.0 0.00 0.00 0.00 95 977.3
20260508210744 24 197 0.0 0.0 0.00 0.00 0.00 95 977.3
20260508210241 23 197 0.0 0.0 0.00 0.00 0.00 95 977.2
20260508205738 23 197 0.0 0.0 0.00 0.00 0.00 95 977.2
20260508205234 24 197 0.0 0.0 0.00 0.00 0.00 95 977.1
20260508204731 24 197 0.0 0.0 0.00 0.00 0.00 95 977.2
20260508204227 24 197 0.0 0.0 0.00 0.00 0.00 95 977.0
20260508203723 24 197 0.0 0.0 0.00 0.00 0.00 95 977.2
20260508203220 24 197 0.0 0.0 0.00 0.00 0.00 95 977.2
20260508202716 24 197 0.0 0.0 0.00 0.00 0.00 95 977.2
20260508202213 24 197 0.0 0.0 0.00 0.00 0.00 95 977.1
20260508201710 24 197 0.0 0.0 0.00 0.00 0.00 94 977.1
20260508201206 24 197 0.0 0.0 0.00 0.00 0.00 94 976.9
20260508200703 24 197 0.0 0.0 0.00 0.00 0.00 94 977.0
20260508200159 24 197 0.0 0.0 0.00 0.00 0.00 94 976.8
20260508195656 24 197 0.0 0.0 0.00 0.00 0.00 94 976.8
20260508195152 24 197 0.0 0.0 0.00 0.00 0.00 94 977.0
20260508194649 24 197 0.0 0.0 0.00 0.00 0.00 93 976.9
20260508194146 24 197 0.0 0.0 0.00 0.00 0.00 93 976.9
20260508193643 24 197 0.0 0.0 0.00 0.00 0.00 92 976.9
20260508193140 25 197 0.0 0.0 0.00 0.00 0.00 93 976.9
20260508192636 25 197 0.0 0.0 0.00 0.00 0.00 93 976.9
20260508192134 25 197 0.0 0.0 0.00 0.00 0.00 93 977.1
20260508191630 25 197 0.0 0.0 0.00 0.00 0.00 92 976.9
20260508191127 25 197 0.0 0.0 0.00 0.00 0.00 92 976.8
20260508190625 25 197 0.0 0.0 0.00 0.00 0.00 92 977.1
20260508190121 25 194 0.0 0.0 0.00 0.00 0.00 92 977.1
20260508185618 25 108 0.0 0.0 0.00 0.00 0.00 92 976.9
20260508185115 25 182 0.0 0.0 0.00 0.00 0.00 92 977.1
20260508184612 25 174 0.0 1.6 0.00 0.00 0.00 92 976.9
20260508184109 25 197 0.0 0.0 0.00 0.00 0.00 92 977.0
20260508183606 25 214 0.0 0.0 0.00 0.00 0.00 92 977.2
20260508183102 25 214 0.0 0.0 0.00 0.00 0.00 92 976.9
20260508182558 25 214 0.0 0.0 0.00 0.00 0.00 91 977.2
20260508182055 25 214 0.0 0.0 0.00 0.00 0.00 91 977.1
20260508181555 25 214 0.0 0.0 0.00 0.00 0.00 91 977.1
20260508181053 25 214 0.0 0.0 0.00 0.00 0.00 91 977.0
20260508180550 25 214 0.0 0.0 0.00 0.00 0.00 91 977.1
20260508180046 25 214 0.0 0.0 0.00 0.00 0.00 90 977.3
20260508175543 25 214 0.0 0.0 0.00 0.00 0.00 91 977.3
20260508175041 25 214 0.0 0.0 0.00 0.00 0.00 90 977.3
20260508174538 25 214 0.0 0.0 0.00 0.00 0.00 90 977.3
20260508174035 25 214 0.0 0.0 0.00 0.00 0.00 89 977.2
20260508173532 25 214 0.0 0.0 0.00 0.00 0.00 89 977.5
20260508173027 25 214 0.0 0.0 0.00 0.00 0.00 89 977.7
20260508172525 25 214 0.0 0.0 0.00 0.00 0.00 88 977.6
20260508172021 25 214 0.0 0.0 0.00 0.00 0.00 88 977.8
20260508171518 25 214 0.0 0.0 0.00 0.00 0.00 88 977.8
20260508171014 25 214 0.0 0.0 0.00 0.00 0.00 89 977.8
20260508170511 25 214 0.0 0.0 0.00 0.00 0.00 89 977.8
20260508170009 25 213 0.0 0.0 0.00 0.00 0.00 90 978.0
20260508165506 25 213 0.0 0.0 0.00 0.00 0.00 90 977.9
20260508165003 25 213 0.0 0.0 0.00 0.00 0.00 90 977.9
20260508164459 25 211 0.0 0.0 0.00 0.00 0.00 90 978.0
20260508163956 25 194 0.0 0.0 0.00 0.00 0.00 90 978.0
20260508163454 25 222 0.0 0.0 0.00 0.00 0.00 89 978.0
20260508162949 25 222 0.0 0.0 0.00 0.00 0.00 89 977.9
20260508162447 25 222 0.0 0.0 0.00 0.00 0.00 89 977.9
20260508161943 26 222 0.0 0.0 0.00 0.00 0.00 88 978.1
20260508161441 26 222 0.0 0.0 0.00 0.00 0.00 87 978.1
20260508160938 26 222 0.0 0.0 0.00 0.00 0.00 87 978.0
20260508160438 26 222 0.0 0.0 0.00 0.00 0.00 87 977.9
20260508155933 26 222 0.0 0.0 0.00 0.00 0.00 85 978.0
20260508155430 26 222 0.0 0.0 0.00 0.00 0.00 86 978.0
20260508154927 26 222 0.0 0.0 0.00 0.00 0.00 85 978.0
20260508154424 26 222 0.0 0.0 0.00 0.00 0.00 85 977.9
20260508153920 26 227 0.0 0.0 0.00 0.00 0.00 85 977.9
20260508153418 26 227 0.0 0.0 0.00 0.00 0.00 85 977.9
20260508152914 26 227 0.0 0.0 0.00 0.00 0.00 85 977.6
20260508152411 26 223 0.0 0.0 0.00 0.00 0.00 85 977.7
20260508151907 26 222 0.0 0.0 0.00 0.00 0.00 85 977.7
20260508151404 26 222 0.0 0.0 0.00 0.00 0.00 84 977.6
20260508150900 26 222 0.0 0.0 0.00 0.00 0.00 84 977.6
20260508150357 26 222 0.0 0.0 0.00 0.00 0.00 84 977.6
20260508145853 26 222 0.0 0.0 0.00 0.00 0.00 84 977.3
20260508145350 26 222 0.0 0.0 0.00 0.00 0.00 84 977.3
20260508144847 26 222 0.0 0.0 0.00 0.00 0.00 85 977.5
20260508144345 26 222 0.0 0.0 0.00 0.00 0.00 85 977.3
20260508143842 26 236 0.0 0.0 0.00 0.00 0.00 85 977.5
20260508143339 26 236 0.0 0.0 0.00 0.00 0.00 85 977.2
20260508142836 26 236 0.0 0.0 0.00 0.00 0.00 85 976.9
20260508142332 26 236 0.0 0.0 0.00 0.00 0.00 85 977.0
20260508141829 26 238 0.0 0.0 0.00 0.00 0.00 84 977.0
20260508141326 26 222 0.0 0.0 0.00 0.00 0.00 85 976.8
20260508140823 26 223 0.0 0.0 0.00 0.00 0.00 84 977.0
20260508140320 26 222 0.0 0.0 0.00 0.00 0.00 85 976.9
20260508135816 26 222 0.0 0.0 0.00 0.00 0.00 85 976.8
20260508135312 26 219 0.0 0.0 0.00 0.00 0.00 84 976.8
20260508134808 27 213 0.0 0.0 0.00 0.00 0.00 84 976.9
20260508134305 27 212 0.0 0.0 0.00 0.00 0.00 82 976.9
20260508133802 27 209 0.0 0.0 0.00 0.00 0.00 81 976.8
20260508133300 27 204 0.0 0.0 0.00 0.00 0.00 82 976.8
20260508132757 27 220 0.0 0.0 0.00 0.00 0.00 81 976.6
20260508132254 27 220 0.0 0.0 0.00 0.00 0.00 82 976.6
20260508131750 27 220 0.0 0.0 0.00 0.00 0.00 82 976.7
20260508131247 27 220 0.0 0.0 0.00 0.00 0.00 82 976.3
20260508130743 27 220 0.0 0.0 0.00 0.00 0.00 82 976.2
20260508130240 27 220 0.0 0.0 0.00 0.00 0.00 80 976.1
20260508125736 27 220 0.0 0.0 0.00 0.00 0.00 76 976.0
20260508125232 28 220 0.0 0.0 0.00 0.00 0.00 75 975.9
20260508124731 28 210 0.0 0.0 0.00 0.00 0.00 75 975.9
20260508124227 28 200 0.0 0.0 0.00 0.00 0.00 75 975.7
20260508123726 28 208 0.0 0.0 0.00 0.00 0.00 75 975.5
20260508123224 28 208 0.0 0.0 0.00 0.00 0.00 75 975.4
20260508122719 28 205 0.0 0.0 0.00 0.00 0.00 74 975.5
20260508122216 28 209 0.0 0.0 0.00 0.00 0.00 74 975.3
20260508121714 28 208 0.0 0.0 0.00 0.00 0.00 73 975.6
20260508121213 28 208 0.0 0.0 0.00 0.00 0.00 73 975.6
20260508120709 28 208 0.0 0.0 0.00 0.00 0.00 73 975.5
20260508120208 28 208 0.0 0.0 0.00 0.00 0.00 73 975.4
20260508115705 28 208 0.0 0.0 0.00 0.00 0.00 73 975.4
20260508115202 28 208 0.0 0.0 0.00 0.00 0.00 72 975.4
20260508114658 28 208 0.0 0.0 0.00 0.00 0.00 73 975.4
20260508114155 29 208 0.0 0.0 0.00 0.00 0.00 71 975.3
20260508113652 29 207 0.0 0.0 0.00 0.00 0.00 71 975.2
20260508113150 29 208 0.0 0.0 0.00 0.00 0.00 70 975.3
20260508112646 30 212 0.0 0.0 0.00 0.00 0.00 69 975.3
20260508112143 30 222 0.0 0.0 0.00 0.00 0.00 69 975.0
20260508111640 30 204 0.0 3.2 0.00 0.00 0.00 68 974.9
20260508111137 30 103 0.0 1.6 0.00 0.00 0.00 68 974.9
20260508110635 30 186 0.0 0.0 0.00 0.00 0.00 68 974.8
20260508110131 30 169 0.0 3.2 0.00 0.00 0.00 68 974.7
20260508105626 30 155 1.6 3.2 0.00 0.00 0.00 67 974.7
20260508105123 30 61 1.6 3.2 0.00 0.00 0.00 67 974.8
20260508104621 30 153 0.0 1.6 0.00 0.00 0.00 67 974.7
20260508104117 30 167 0.0 3.2 0.00 0.00 0.00 66 974.7
20260508103614 30 62 1.6 3.2 0.00 0.00 0.00 65 974.6
20260508103111 30 170 0.0 1.6 0.00 0.00 0.00 63 974.6
20260508102609 30 65 3.2 3.2 0.00 0.00 0.00 62 974.7
20260508102106 30 81 1.6 3.2 0.00 0.00 0.00 63 974.7
20260508101604 30 114 1.6 3.2 0.00 0.00 0.00 64 974.6
20260508101101 30 167 0.0 0.0 0.00 0.00 0.00 65 974.4
20260508100559 30 165 0.0 1.6 0.00 0.00 0.00 65 974.1
20260508100055 30 155 0.0 1.6 0.00 0.00 0.00 65 974.2
20260508095552 30 43 0.0 1.6 0.00 0.00 0.00 66 974.1
20260508095049 30 56 1.6 3.2 0.00 0.00 0.00 66 974.1
20260508094547 30 330 0.0 3.2 0.00 0.00 0.00 64 974.2
20260508094043 31 326 0.0 3.2 0.00 0.00 0.00 65 974.1
20260508093540 31 185 0.0 3.2 0.00 0.00 0.00 65 974.1
20260508093038 30 175 1.6 1.6 0.00 0.00 0.00 66 974.0
20260508092535 31 57 1.6 4.8 0.00 0.00 0.00 64 973.9
20260508092034 31 194 0.0 4.8 0.00 0.00 0.00 67 974.2
20260508091531 31 327 1.6 8.0 0.00 0.00 0.00 66 974.3
20260508091027 31 208 0.0 0.0 0.00 0.00 0.00 65 974.3
20260508090526 31 188 0.0 1.6 0.00 0.00 0.00 65 974.3
20260508090022 30 179 0.0 1.6 0.00 0.00 0.00 65 974.3
20260508085518 30 127 4.8 8.0 0.00 0.00 0.00 66 974.5
20260508085015 30 156 0.0 4.8 0.00 0.00 0.00 64 974.5
20260508084512 31 70 3.2 8.0 0.00 0.00 0.00 64 974.5
20260508084010 31 46 1.6 1.6 0.00 0.00 0.00 65 974.6
20260508083507 31 177 0.0 1.6 0.00 0.00 0.00 65 974.3
20260508083003 31 104 3.2 11.3 0.00 0.00 0.00 66 974.7
20260508082459 31 204 0.0 3.2 0.00 0.00 0.00 65 974.5
20260508081957 31 213 0.0 0.0 0.00 0.00 0.00 63 974.5
20260508081454 31 218 0.0 0.0 0.00 0.00 0.00 66 974.6
20260508080949 31 187 0.0 1.6 0.00 0.00 0.00 66 974.8
20260508080448 31 192 0.0 0.0 0.00 0.00 0.00 66 974.7
20260508075945 31 348 0.0 8.0 0.00 0.00 0.00 68 975.0
20260508075442 31 9 4.8 4.8 0.00 0.00 0.00 68 975.0
20260508074939 31 208 0.0 4.8 0.00 0.00 0.00 70 975.1
20260508074437 31 85 3.2 3.2 0.00 0.00 0.00 67 975.3
20260508073933 30 258 0.0 3.2 0.00 0.00 0.00 69 975.3
20260508073431 30 62 3.2 4.8 0.00 0.00 0.00 69 975.4
20260508072928 31 183 0.0 0.0 0.00 0.00 0.00 72 975.6
20260508072424 30 47 3.2 8.0 0.00 0.00 0.00 71 975.7
20260508071921 30 161 0.0 1.6 0.00 0.00 0.00 71 975.6
20260508071419 31 200 0.0 4.8 0.00 0.00 0.00 71 975.9
20260508070917 31 173 0.0 1.6 0.00 0.00 0.00 70 975.7
20260508070415 31 250 0.0 4.8 0.00 0.00 0.00 70 975.9
20260508065912 31 203 0.0 0.0 0.00 0.00 0.00 69 975.9
20260508065410 30 202 0.0 0.0 0.00 0.00 0.00 71 976.0
20260508064908 30 91 3.2 4.8 0.00 0.00 0.00 72 976.3
20260508064405 30 38 1.6 3.2 0.00 0.00 0.00 72 976.4
20260508063903 30 141 1.6 8.0 0.00 0.00 0.00 72 976.4
20260508063400 30 250 0.0 0.0 0.00 0.00 0.00 70 976.5
20260508062857 30 73 3.2 4.8 0.00 0.00 0.00 74 976.6
20260508062355 30 249 0.0 4.8 0.00 0.00 0.00 71 976.9
20260508061852 30 51 3.2 8.0 0.00 0.00 0.00 73 976.8
20260508061349 31 113 1.6 3.2 0.00 0.00 0.00 73 977.0
20260508060845 30 306 0.0 3.2 0.00 0.00 0.00 72 977.0
20260508060343 31 58 0.0 0.0 0.00 0.00 0.00 72 977.6
20260508055838 30 357 1.6 1.6 0.00 0.00 0.00 69 977.3
20260508055336 30 208 0.0 4.8 0.00 0.00 0.00 72 977.8